Location: Trebic
(49.2170°N, 15.8830°E)
Time: 04:46:12
(UTC+02:00)

Transit 2A Rocket - Pass Details

Date: 26 July 2019
Orbit: 590 x 913 km, 66.7° (Epoch: 21 August)

Event Time Altitude Azimuth Distance (km) Brightness Sun altitude
Rises 03:48:00 0° 228° (SW) 3,504 - -12.1°
Reaches altitude 10° 03:50:37 10° 232° (SW) 2,542 - -11.8°
Exits shadow 03:51:32 15° 234° (SW) 2,210 6.8 -11.7°
Maximum altitude 03:56:26 58° 311° (NW) 984 5.6 -11.2°
Drops below altitude 10° 04:01:52 10° 31° (NNE) 2,373 9.0 -10.6°
Sets 04:04:15 0° 35° (NE) 3,255 10.4 -10.4°
